Weather History for Entrance, BC

Change the Weather History Date:

Tuesday, August 27, 2013

  Actual Average Record
Temperature  
Mean Temperature 62 °F -  
Max Temperature 65 °F - - ()
Min Temperature 58 °F - - ()
Degree Days  
Heating Degree Days 4    
Growing Degree Days 12 (Base 50)    
Moisture  
Dew Point 57 °F    
Average Humidity 83    
Maximum Humidity 88    
Minimum Humidity 74    
Precipitation  
Precipitation 0.16 in - - ()
Sea Level Pressure  
Sea Level Pressure 29.88 in    
Wind  
Wind Speed 10 mph ()    
Max Wind Speed 17 mph    
Max Gust Speed -    
T = Trace of Precipitation, MM = Missing Value Source: Averaged Metar Reports

Daily Weather History Graph

Daily Weather History Graph

Search for Another Location

Airport:

Trip Planner

Search our weather history database for the weather conditions in past years. The results will help you decide how hot, cold, wet, or windy it might be!

Date:

Astronomy

Aug. 27, 2013 Rise Set
Actual Time 6:24 AM PDT 8:07 PM PDT
Civil Twilight 5:51 AM PDT 8:40 PM PDT
Nautical Twilight 5:09 AM PDT 9:21 PM PDT
Astronomical Twilight 4:24 AM PDT 10:06 PM PDT
Moon 11:24 PM PDT (8/27) 2:08 PM PDT (8/27)
Length of Visible Light 14h 49m
Length of Day
13h 42m
Waning Gibbous, 56% of the Moon is Illuminated
Aug 27
Waning Gibbous
Aug 28
Last Quarter
Sep 5
New
Sep 12
First Quarter
Sep 19
Full

Hourly Weather History & Observations

Time (PDT) Temp. Dew Point Humidity Pressure Visibility Wind Dir Wind Speed Gust Speed Precip Events Conditions
12:00 AM 61.3 °F 57.0 °F 86% 29.89 in - ESE 15.0 mph - N/A   Unknown
1:00 AM 59.9 °F 55.4 °F 85% 29.90 in - SSE 11.5 mph - N/A   Unknown
2:00 AM 60.3 °F 55.2 °F 83% 29.91 in - SE 11.5 mph - N/A   Unknown
3:00 AM 60.4 °F 55.6 °F 84% 29.91 in - SE 17.3 mph - N/A   Unknown
4:00 AM 60.4 °F 55.6 °F 84% 29.91 in - SSE 11.5 mph - N/A   Unknown
5:00 AM 60 °F 55 °F 80% 29.90 in - SSE 8.1 mph - -  
5:00 AM 59.9 °F 55.4 °F 85% 29.90 in - SSE 8.1 mph - N/A   Unknown
6:00 AM 59.5 °F 55.9 °F 88% 29.89 in - SSE 11.5 mph - N/A   Unknown
7:00 AM 59.2 °F 55.4 °F 87% 29.90 in - SSE 11.5 mph - N/A   Unknown
8:00 AM 59.5 °F 55.6 °F 87% 29.90 in - SSE 10.4 mph - N/A   Unknown
9:00 AM 59.7 °F 55.6 °F 86% 29.91 in - SSE 9.2 mph - N/A   Unknown
10:00 AM 60.3 °F 56.1 °F 86% 29.91 in - SE 11.5 mph - N/A   Unknown
11:00 AM 61 °F 56 °F 80% 29.90 in - ESE 15.0 mph - -  
11:00 AM 60.8 °F 56.3 °F 85% 29.90 in - ESE 15.0 mph - N/A   Unknown
12:00 PM 61.3 °F 56.5 °F 84% 29.90 in - SE 13.8 mph - N/A   Unknown
1:00 PM 61.2 °F 56.8 °F 86% 29.89 in - ESE 13.8 mph - N/A   Unknown
2:00 PM 61.7 °F 57.2 °F 85% 29.89 in - ESE 9.2 mph - N/A   Unknown
3:00 PM 63.7 °F 57.6 °F 80% 29.88 in - ESE 12.7 mph - N/A   Unknown
4:00 PM 64.0 °F 58.3 °F 82% 29.86 in - SE 8.1 mph - N/A   Unknown
5:00 PM 65 °F 59 °F 74% 29.86 in - SE 2.3 mph - -  
5:00 PM 65.1 °F 58.6 °F 79% 29.86 in - SE 2.3 mph - N/A   Unknown
6:00 PM 64.2 °F 57.7 °F 79% 29.84 in - NE 3.5 mph - N/A   Unknown
7:00 PM 64.4 °F 56.1 °F 74% 29.82 in - West 12.7 mph - N/A   Unknown
8:00 PM 62.4 °F 57.0 °F 82% 29.82 in - West 12.7 mph - 0.01 in   Unknown
9:00 PM 62.2 °F 57.4 °F 84% 29.82 in - West 16.1 mph - 0.01 in   Unknown
10:00 PM 62.2 °F 56.3 °F 81% 29.83 in - WNW 10.4 mph - 0.06 in   Unknown
11:00 PM 61 °F 57 °F 81% 29.83 in - West 6.9 mph - -  
11:00 PM 60.8 °F 56.7 °F 86% 29.83 in - West 6.9 mph - 0.06 in   Unknown